星链-36901(STARLINK-36901)

导读 | 豆包AI

STARLINK-36901(NORAD编号67974)是美国太空探索技术公司(SpaceX)Starlink卫星互联网项目的低轨通信卫星,采用Starlink V1.0平台设计。作为SpaceX星链星座部署的组成部分,该卫星旨在为全球尤其是偏远地区提供高速低延迟互联网接入服务,助力缩小全球数字鸿沟,同时可支持军事、航空等特殊行业通信需求。它运行在近地轨道,依托星链的相控阵天线、多波束技术实现大容量通信,目前处于在轨运行状态,是星链全球网络架构的重要节点。

Basic Information
目录编号:
67974
目录名称:
STARLINK-36901
国际标识:
2026-038P
轨道中心:
EARTH
卫星名称:
星链-36901
卫星全名:
星链-36901(STARLINK-36901)
卫星状态:
在轨 (已飞行89 天)
发射日期:
2026-02-25 UTC
国别 :
美国 (US)
星等 :
--
Orbit Information
数据来源 国际轨道数据 AOE轨道数据
星历时间 2026-05-25T07:51:18+0800
8小时前
查看轨道信息
2026-05-21T15:00:00+0800
4天前
查看轨道信息
半长轴 6843.638km 6843.662km
偏心率 0.0002389 0.0001562
轨道倾角 97.283° 97.286°
近地点辐角 111.259° 86.580°
升交点赤经 155.034° 151.386°
平近点角 248.890° 8.812°
近地点 463.866km 464.456km
远地点 467.136km 466.594km
周期 93.905分钟 93.906分钟
每日圈数 15.334594 15.334513
Detailed Information
固有亮度:
5
最大亮度:
2.5
卫星平台:
Starlink V1.0
覆盖范围:
全球
运营商:
太空探索技术公司
运营商所在国:
美国
制造商(研发单位):
太空探索技术公司
制造商所在国:
美国
使用方式:
暂无
Satellite Introduction
Starlink 计划是 SpaceX 推出的全球卫星互联网项目,通过发射低轨道卫星,为全球尤其是偏远地区提供高速、低延迟的互联网服务。自 2019 年起,Starlink 已部署数千颗卫星,旨在缩小全球数字鸿沟,推动互联网普及。该项目还为军事、航空等行业提供通信支持,带来广泛经济效益。
2D Orbit Map
3D Orbit Map
Orbit Altitude Analysis Chart
Orbit Inclination Analysis Chart
Orbit Comprehensive Analysis Chart
View Comprehensive Chart